Regional Weather Roundup
Issued by NWS

Home | Current Version | Previous Version | Graphics & Text | Print | Product List | Glossary On
Versions: 1 2 3 4 5 6 7 8 9 10 11 12 13 14 15 16 17 18 19 20 21 22 23 24 25 26 27 28 29 30 31 32 33 34 35 36 37 38 39 40 41 42 43 44 45 46 47 48 49 50
000
ASUS43 KLOT 281004
RWRIL

ILLINOIS REGIONAL WEATHER ROUNDUP
NATIONAL WEATHER SERVICE CHICAGO/ROMEOVILLE IL
500 AM CDT SAT MAY 28 2016

NOTE: "FAIR" INDICATES FEW OR NO CLOUDS BELOW 12,000 FEET WITH NO
SIGNIFICANT WEATHER AND/OR OBSTRUCTIONS TO VISIBILITY.

* THESE STATIONS ARE NOT UNDER NWS QUALITY CONTROL. THEY ALSO MAY NOT
  REPORT WEATHER SUCH AS PRECIPITATION OR FOG.

ILZ001-002-007-009-015-016-024-281100-
NORTHWEST ILLINOIS

CITY           SKY/WX    TMP DP  RH WIND       PRES   REMARKS
MOLINE         PTCLDY    69  63  81 SW14      29.76R
STERLING*      LGT RAIN  69  67  93 VRB7      29.79S
$$

ILZ003-004-008-010-011-017-018-281100-
NORTH CENTRAL ILLINOIS

CITY           SKY/WX    TMP DP  RH WIND       PRES   REMARKS
ROCKFORD       CLOUDY    70  65  84 S21       29.82S
FREEPORT*      CLOUDY    67  65  93 S17G26    29.80S
ROCHELLE*      CLOUDY    68  65  91 S18       29.82S
$$

ILZ005-006-012>014-019>023-281100-
NORTHEAST ILLINOIS

CITY           SKY/WX    TMP DP  RH WIND       PRES   REMARKS
CHICAGO-OHARE  CLOUDY    69  64  84 S12       29.85S
CHICAGO-MIDWAY CLOUDY    73  63  70 S13       29.86R
AURORA         CLOUDY    70  65  84 S13       29.85S
LANSING*       PTCLDY    71  63  77 S14       29.88S
WAUKEGAN       CLOUDY    63  62  97 S5        29.85S
DUPAGE AIRPORT CLOUDY    69  63  81 S10       29.84S
WHEELING       CLOUDY    68  64  87 S10       29.86S
NORTHERLY ISL    N/A     69  63  81 S10         N/A
NORTHERLY ISL    N/A     69  63  81 S10         N/A
$$

LMZ740>746-281100-
SOUTHERN LAKE MICHIGAN

STATION/POSITION SKY/WX   TEMP    WIND        PRES    VSBY  WAVE
                          AIR SEA DIR/SP/G                  HT/PER
                          (F)     (DEG/KT/KT) (MB)    (MI)  (FT/S)
SOUTHERN BUOY              55 50  140/ 10/ 12 1011.6          1/ 4
WILMETTE HARBOR            58 53  160/  8/  8   N/A           1/ 2
HARRISON CRIB              65     160/ 14/ 15   N/A
BURNHAM HARBOR             71     160/  6/ 11   N/A
CALUMET HARBOR             71     150/  8/ 12 1010.8F
BURNS HARBOR               72     160/ 11/ 19 1012.5S
MICHIGAN CITY              71     140/  8/ 11   N/A
MICHIGAN CITY 6N           67 58  150/  8/ 10   N/A           1
ST. JOSEPH                 67 61  130/  8/ 10   N/A           1/ 3
$$

ILZ025>027-034>036-040-047-049-050-058-095>099-281100-
WEST-CENTRAL ILLINOIS

CITY           SKY/WX    TMP DP  RH WIND       PRES   REMARKS
QUINCY         CLOUDY    68  66  93 S13       29.80R
MACOMB*        CLOUDY    68  67  95 S9        29.82R
PITTSFIELD*    PTCLDY    68  66  94 S10       29.84R
$$

ILZ028>032-037-038-041>044-048-051>054-059>061-281100-
CENTRAL ILLINOIS

CITY           SKY/WX    TMP DP  RH WIND       PRES   REMARKS
BLOOMINGTON    CLOUDY    69  67  93 S17       29.89R
DECATUR        CLOUDY    69  65  86 S12       29.90R
PEORIA         CLOUDY    70  66  87 S16       29.83R
SPRINGFIELD    MOCLDY    70  64  81 S14       29.86R
TAYLORVILLE    NOT AVBL
$$

ILZ033-039-045-046-055>057-062-063-281100-
EAST-CENTRAL ILLINOIS

CITY           SKY/WX    TMP DP  RH WIND       PRES   REMARKS
CHAMPAIGN      CLOUDY    69  65  86 S15       29.91R
MATTOON        CLOUDY    70  64  81 S9        29.92R
$$

ILZ079-100>102-281100-
SOUTHWEST ILLINOIS

CITY           SKY/WX    TMP DP  RH WIND       PRES   REMARKS
BELLEVILLE     CLOUDY    67  67 100 E1        29.89R
CAHOKIA*       CLOUDY    68  64  87 SE8       29.89R
SPARTA*        CLOUDY    68  64  89 S6        29.93R
$$

ILZ064>066-069>071-074>076-080>082-084>086-088>090-092>094-281100-
SOUTH-CENTRAL ILLINOIS

CITY           SKY/WX    TMP DP  RH WIND       PRES   REMARKS
CARBONDALE     CLOUDY    68  64  87 S8        29.92R
MT. VERNON     CLOUDY    70  63  78 S6        29.94R
SALEM*         CLOUDY    70  65  84 SE7       29.92R
$$

ILZ067-068-072-073-078-083-087-091-281100-
SOUTHEAST ILLINOIS

CITY           SKY/WX    TMP DP  RH WIND       PRES   REMARKS
LAWRENCEVILLE  CLOUDY    73  66  78 S10       29.96R
FLORA*         CLOUDY    69  67  92 SE6       29.94S
HARRISBURG*    PTCLDY    69  66  90 CALM      29.95R
ROBINSON*      CLOUDY    71  65  82 S7        29.96R
$$

ABBREVIATIONS USED IN REMARKS
   TC - TEMPERATURE IN CELSIUS
  WCI - WIND CHILL INDEX
   HX - HEAT INDEX
  VSB - VISIBILITY
$$





USA.gov is the U.S. government's official web portal to all federal, state and local government web resources and services.